Regional Weather Roundup
Issued by NWS Cleveland, OH

Home | Current Version | Previous Version | Graphics & Text | Print | Product List | Glossary On
Versions: 1 2 3 4 5 6 7 8 9 10 11 12 13 14 15 16 17 18 19 20 21 22 23 24 25 26 27 28 29 30 31 32 33 34 35 36 37 38 39 40 41 42 43 44 45 46 47 48 49 50
000
ASUS41 KCLE 281402
RWRCLE
OHIO REGIONAL WEATHER ROUNDUP
NATIONAL WEATHER SERVICE CLEVELAND, OH
1000 AM EDT FRI APR 28 2017

NOTE: "FAIR" INDICATES FEW OR NO CLOUDS BELOW 12,000 FEET WITH NO
SIGNIFICANT WEATHER AND/OR OBSTRUCTIONS TO VISIBILITY.

OHZ001>008-015>018-024>027-034-035-043-044-281500-
   NORTHWEST OHIO

CITY           SKY/WX    TMP DP  RH WIND       PRES   REMARKS
DEFIANCE       PTSUNNY   52  41  66 S13       30.03R
FINDLAY        SUNNY     55  42  61 S13       30.01F
TOLEDO EXPRESS CLOUDY    51  41  68 S9        30.01S
TOLEDO EXEC    CLOUDY    52  42  69 S12       30.02F
LIMA           MOSUNNY   51  44  77 S10       30.04R
$$

OHZ009>014-019>023-028>033-038-089-281500-
   NORTHEAST OHIO

CITY           SKY/WX    TMP DP  RH WIND       PRES   REMARKS
CLE-HOPKINS    PTSUNNY   55  41  59 S9        30.06R
CLE-LAKEFRONT  PTSUNNY   54  41  61 S10       30.03R
CUY CO. ARPT   PTSUNNY   55  43  62 S12       30.04S
LORAIN-ELYRIA  PTSUNNY   52  41  66 SW8       30.05R
ASHTABULA      MOSUNNY   54  45  71 SW8       30.05S
AKRON-CANTON   CLOUDY    54  43  66 SW12      30.05S
WOOSTER        CLOUDY    53  43  68 S13       30.06R
MANSFIELD      PTSUNNY   51  43  74 S10       30.04S
YOUNGSTOWN     CLOUDY    54  44  69 S7        30.04F
$$

OHZ042-051>053-060>062-070>072-077>081-281500-
  SOUTHWEST OHIO

CITY           SKY/WX    TMP DP  RH WIND       PRES   REMARKS
CINC-COVINGTON CLOUDY    54  47  77 SE9       30.01F
CINC-LUNKEN    CLOUDY    56  50  80 E6        30.03F
HAMILTON       CLOUDY    55  48  77 VRB6      30.04S
DAYTON         CLOUDY    51  45  79 SE9       30.04F
WRIGHT-PAT AFB CLOUDY    54  47  77 E7        30.02F
DAYTON GENERAL CLOUDY    53  46  77 E8        30.01F
WILMINGTON     CLOUDY    53  48  83 SE8       30.03S
$$

OHZ036-037-039>041-045>050-054>059-063>069-073>076-082>088-281500-
  CENTRAL AND SOUTHEAST OHIO

CITY           SKY/WX    TMP DP  RH WIND       PRES   REMARKS
COLUMBUS       CLOUDY    57  46  66 S7        30.06R
OSU AIRPORT    CLOUDY    55  47  74 SW5       30.06R
BOLTON FIELD   SUNNY     55  46  71 SE5       30.05S
RICKENBACK AFB MOSUNNY   57  47  69 SE5       30.04R
NEWARK         MOSUNNY   58  45  62 SE6       30.05S
MARION         CLOUDY    52  42  69 S10       30.06R
LANCASTER      MOSUNNY   59  48  67 SE8       30.05F
ZANESVILLE     MOSUNNY   58  47  66 SE6       30.05F
NEW PHILLY     NOT AVBL
$$



USA.gov is the U.S. government's official web portal to all federal, state and local government web resources and services.